星链-32476 (STARLINK-32476)

导读

STARLINK-32476是美国SpaceX星链星座的一员,于2024年10月15日发射入轨,属于低轨通信卫星。星链系统旨在为全球提供高速互联网接入服务,该卫星承担全球覆盖补网或组网扩容任务,依托低轨布局降低通信延迟,服务偏远地区通信、移动互联等场景,是美国构建大规模卫星互联网络的重要组成部分。

Basic Information
目录编号:
61550
目录名称:
STARLINK-32476
国际标识:
2024-184U
轨道中心:
EARTH
卫星名称:
星链-32476
卫星全名:
星链-32476 (STARLINK-32476)
卫星状态:
在轨 (已飞行697 天)
发射日期:
2024-10-15 UTC
国别 :
美国 (US)
星等 :
--
This satellite is enrolled in the Space Conjunction Data Service (SCDS) and the current flight risk assessment level is: High Risk
Orbit Information
数据来源 国际轨道数据 AOE轨道数据
星历时间 2026-09-11T16:10:32+0800
19小时前
查看轨道信息
2026-09-09T22:00:00+0800
2天前
查看轨道信息
半长轴 6840.861km 6840.862km
偏心率 0.000155 0.0001518
轨道倾角 53.158° 53.157°
近地点辐角 82.628° 109.212°
升交点赤经 228.587° 236.806°
平近点角 277.490° 258.408°
近地点 461.663km 461.686km
远地点 463.785km 463.764km
周期 93.848分钟 93.848分钟
每日圈数 15.343933 15.343928
Detailed Information
固有亮度:
5
最大亮度:
2.5
卫星平台:
Starlink V1.0
覆盖范围:
全球
运营商:
太空探索技术公司
运营商所在国:
美国
制造商(研发单位):
太空探索技术公司
制造商所在国:
美国
使用方式:
暂无
Satellite Introduction
Starlink 计划是 SpaceX 推出的全球卫星互联网项目,通过发射低轨道卫星,为全球尤其是偏远地区提供高速、低延迟的互联网服务。自 2019 年起,Starlink 已部署数千颗卫星,旨在缩小全球数字鸿沟,推动互联网普及。该项目还为军事、航空等行业提供通信支持,带来广泛经济效益。
2D Orbit Map
3D Orbit Map
Orbit Altitude Analysis Chart
Orbit Inclination Analysis Chart
Orbit Comprehensive Analysis Chart
View Comprehensive Chart
Conjunction Data List
Event ID Objects TCA Miss Dist (km) Collision Risk Probability Collision Risk Index (CRI) Action
CDM_260914-083006-155006-871721
2026-09-14T
08:30:05+0000
0.370 km
远距离
1.399853E-4 高风险 0.78
CDM_260910-034006-155006-871722
2026-09-10T
03:40:17+0000
0.880 km
远距离
1.124654E-5 中风险 0.56
CDM_260914-030106-155006-871721
2026-09-14T
03:01:49+0000
1.054 km
极远距离
6.065629E-6 低风险 0.51
CDM_260910-060006-155006-871721
2026-09-10T
06:00:58+0000
1.068 km
极远距离
5.790407E-6 低风险 0.5
CDM_260914-043506-155006-871721
2026-09-14T
04:35:37+0000
1.401 km
极远距离
2.373601E-6 低风险 0.43
CDM_260907-110005-257606-155022
2026-09-07T
11:00:03+0000
2.934 km
极远距离
1.171257E-6 低风险 0.36
CDM_260914-065606-155006-871721
2026-09-14T
06:56:18+0000
1.921 km
极远距离
9.976441E-7 极低风险 0.35
CDM_260910-020606-155006-871721
2026-09-10T
02:06:29+0000
2.186 km
极远距离
7.562491E-7 极低风险 0.33
Miss Distance Evolution Trend with All Objects
Collision Probability Evolution Trend with All Objects